Weather History for MYNN - December, 2012

Change the Weather History Date:

Thursday, December 6, 2012

  Actual Average Record
Temperature  
Mean Temperature 73 °F -  
Max Temperature 79 °F 79 °F 84 °F (2002)
Min Temperature 67 °F 64 °F 60 °F (2008)
Cooling Degree Days 8    
Growing Degree Days 23 (Base 50)    
Moisture  
Dew Point 66 °F    
Average Humidity 86    
Maximum Humidity 100    
Minimum Humidity 57    
Precipitation  
Precipitation 1.46 in 0.07 in - ()
Sea Level Pressure  
Sea Level Pressure 29.99 in    
Wind  
Wind Speed 4 mph ()    
Max Wind Speed 15 mph    
Max Gust Speed -    
Visibility 6.1 miles    
Events Rain , Thunderstorm    
Averages and records for this station are not official NWS values.
T = Trace of Precipitation, MM = Missing Value Source: Averaged Metar Reports

Daily Weather History Graph

Daily Weather History Graph

Search for Another Location

Airport or City:

Trip Planner

Search our weather history database for the weather conditions in past years. The results will help you decide how hot, cold, wet, or windy it might be!

Date:

Astronomy

Dec. 06, 2012 Rise Set
Actual Time 6:41 AM EST 5:20 PM EST
Civil Twilight 6:16 AM EST 5:45 PM EST
Nautical Twilight 5:48 AM EST 6:13 PM EST
Astronomical Twilight 5:20 AM EST 6:41 PM EST
Moon No Moon Rise 12:08 PM EST (12/6)
Length of Visible Light 11h 28m
Length of Day
10h 38m
Waning Gibbous, 49% of the Moon is Illuminated
Dec 6
Waning Gibbous
Dec 13
New
Dec 20
First Quarter
Dec 28
Full
Jan 4
Last Quarter

Hourly Weather History & Observations

Time (EST) Temp. Dew Point Humidity Pressure Visibility Wind Dir Wind Speed Gust Speed Precip Events Conditions
12:00 AM 73.4 °F 60.8 °F 65% 30.18 in 6.2 mi NNE 11.5 mph - N/A   Mostly Cloudy
1:00 AM 71 °F 67 °F 83% 29.99 in 9 mi Calm Calm - -   Mostly Cloudy
1:00 AM 71.6 °F 66.2 °F 83% 29.98 in 6.2 mi Calm Calm - N/A   Mostly Cloudy
2:00 AM 71.6 °F 68.0 °F 88% 29.98 in 6.2 mi Calm Calm - N/A   Mostly Cloudy
3:00 AM 69.8 °F 66.2 °F 88% 29.96 in 6.2 mi Calm Calm - N/A   Mostly Cloudy
4:00 AM 69 °F 67 °F 93% 29.96 in 9 mi Calm Calm - -   Partly Cloudy
4:00 AM 68.0 °F 68.0 °F 100% 29.96 in 6.2 mi Calm Calm - N/A   Scattered Clouds
5:00 AM 69.8 °F 66.2 °F 88% 29.95 in 6.2 mi Calm Calm - N/A   Partly Cloudy
6:00 AM 69.8 °F 66.2 °F 88% 29.96 in 6.2 mi Calm Calm - N/A   Scattered Clouds
7:00 AM 69 °F 67 °F 92% 29.97 in 9 mi Calm Calm - -   Mostly Cloudy
7:00 AM 69.8 °F 68.0 °F 94% 29.96 in 6.2 mi Calm Calm - N/A   Mostly Cloudy
8:00 AM 73.4 °F 69.8 °F 88% 29.99 in 6.2 mi Variable 1.2 mph - N/A   Scattered Clouds
9:00 AM 77.0 °F 69.8 °F 78% 30.00 in 6.2 mi Variable 2.3 mph - N/A   Scattered Clouds
10:00 AM 77.0 °F 60.8 °F 57% 30.22 in 6.2 mi NE 11.5 mph - N/A   Scattered Clouds
11:00 AM 71.6 °F 68.0 °F 88% 30.01 in - ENE 4.6 mph - N/A Rain Heavy Rain Showers
12:00 PM 77.0 °F 66.2 °F 69% 30.09 in 6.2 mi NNE 9.2 mph - N/A   Mostly Cloudy
1:00 PM 77.0 °F 68.0 °F 74% 30.05 in 6.2 mi NNE 10.4 mph - N/A Rain Light Rain Showers
2:00 PM 71.6 °F 68.0 °F 88% 29.93 in 5.6 mi Calm Calm - N/A   Mostly Cloudy
3:00 PM 71.6 °F 68.0 °F 88% 29.93 in 5.0 mi NE 6.9 mph - N/A Rain Light Rain Showers
4:00 PM 69 °F 68 °F 96% 29.94 in 6 mi NNE 5.8 mph - - Rain Light Rain Showers
4:00 PM 69.8 °F 68.0 °F 94% 29.94 in 5.6 mi NNE 5.8 mph - N/A Rain Rain Showers
5:00 PM 69.8 °F 66.2 °F 88% 29.95 in 3.7 mi NNE 9.2 mph - N/A Rain , Thunderstorm Thunderstorms and Rain
6:00 PM 68.0 °F 64.4 °F 88% 29.97 in 3.7 mi NE 15.0 mph - N/A Rain Rain
7:00 PM 67 °F 66 °F 94% 29.98 in 4 mi NNE 9.2 mph - - Rain Light Rain
7:00 PM 68.0 °F 66.2 °F 94% 29.98 in 4.3 mi NNE 9.2 mph - N/A Rain Light Rain
8:00 PM 68.0 °F 64.4 °F 88% 29.98 in 5.0 mi NNE 12.7 mph - N/A Rain Light Rain
9:00 PM 68.0 °F 62.6 °F 83% 29.98 in 5.0 mi NE 11.5 mph - N/A Rain Light Rain
10:00 PM 69 °F 64 °F 79% 29.97 in 8 mi ENE 8.1 mph - - Rain Light Rain
10:00 PM 68.0 °F 64.4 °F 88% 29.97 in 6.2 mi ENE 8.1 mph - N/A   Mostly Cloudy
11:00 PM 71.6 °F 66.2 °F 83% 30.01 in 6.2 mi NE 3.5 mph - N/A   Mostly Cloudy